Location: Milton Keynes
(52.0316°N, 0.7531°W)
Time: 13:30:39
(UTC+00:00)

GENESIS II - Pass Details

Date: 26 January 2019
Orbit: 487 x 544 km, 64.5° (Epoch: 18 February)

Event Time Altitude Azimuth Distance (km) Brightness Sun altitude
Rises 05:55:11 0° 165° (SSE) 2,611 8.1 -17.8°
Reaches altitude 10° 05:58:37 10° 132° (SE) 1,748 7.7 -17.2°
Maximum altitude 06:00:01 12° 111° (ESE) 1,652 7.9 -17.0°
Drops below altitude 10° 06:01:26 10° 90° (E) 1,766 8.2 -16.8°
Sets 06:04:57 0° 58° (ENE) 2,678 8.6 -16.3°
